Year,Month,Day,Hour,Minute,Value (Times are PST for temperature in C)
2018,10,26,00,00,11.70
2018,10,26,00,01,11.70
2018,10,26,00,02,11.70
2018,10,26,00,03,11.70
2018,10,26,00,04,11.70
2018,10,26,00,05,11.70
2018,10,26,00,07,11.70
2018,10,26,00,08,11.70
2018,10,26,00,09,11.70
2018,10,26,00,10,11.70
2018,10,26,00,11,11.70
2018,10,26,00,13,11.70
2018,10,26,00,14,11.70
2018,10,26,00,15,11.70
2018,10,26,00,16,11.70
2018,10,26,00,17,11.70
2018,10,26,00,19,11.70
2018,10,26,00,20,11.70
2018,10,26,00,21,11.70
2018,10,26,00,22,11.70
2018,10,26,00,23,11.70
2018,10,26,00,24,11.60
2018,10,26,00,26,11.60
2018,10,26,00,28,11.60
2018,10,26,00,29,11.60
2018,10,26,00,30,11.60
2018,10,26,00,31,11.60
2018,10,26,00,32,11.60
2018,10,26,00,34,11.60
2018,10,26,00,35,11.60
2018,10,26,00,37,11.60
2018,10,26,00,38,11.50
2018,10,26,00,39,11.60
2018,10,26,00,40,11.50
2018,10,26,00,41,11.50
2018,10,26,00,42,11.50
2018,10,26,00,43,11.50
2018,10,26,00,44,11.50
2018,10,26,00,45,11.50
2018,10,26,00,47,11.50
2018,10,26,00,48,11.50
2018,10,26,00,49,11.50
2018,10,26,00,50,11.50
2018,10,26,00,51,11.50
2018,10,26,00,53,11.40
2018,10,26,00,54,11.40
2018,10,26,00,56,11.40
2018,10,26,00,57,11.50
2018,10,26,00,58,11.50
2018,10,26,00,59,11.50
2018,10,26,01,00,11.50
2018,10,26,01,02,11.40
2018,10,26,01,03,11.50
2018,10,26,01,04,11.40
2018,10,26,01,06,11.40
2018,10,26,01,07,11.40
2018,10,26,01,08,11.40
2018,10,26,01,09,11.40
2018,10,26,01,10,11.50
2018,10,26,01,11,11.50
2018,10,26,01,12,11.40
2018,10,26,01,13,11.40
2018,10,26,01,15,11.50
2018,10,26,01,16,11.50
2018,10,26,01,17,11.50
2018,10,26,01,18,11.40
2018,10,26,01,19,11.40
2018,10,26,01,21,11.40
2018,10,26,01,22,11.40
2018,10,26,01,24,11.40
2018,10,26,01,26,11.40
2018,10,26,01,28,11.40
2018,10,26,01,29,11.40
2018,10,26,01,30,11.40
2018,10,26,01,32,11.40
2018,10,26,01,34,11.40
2018,10,26,01,35,11.40
2018,10,26,01,36,11.40
2018,10,26,01,37,11.40
2018,10,26,01,38,11.40
2018,10,26,01,39,11.40
2018,10,26,01,40,11.40
2018,10,26,01,42,11.40
2018,10,26,01,44,11.40
2018,10,26,01,45,11.40
2018,10,26,01,46,11.40
2018,10,26,01,47,11.40
2018,10,26,01,48,11.40
2018,10,26,01,50,11.40
2018,10,26,01,51,11.40
2018,10,26,01,53,11.40
2018,10,26,01,54,11.40
2018,10,26,01,55,11.40
2018,10,26,01,57,11.40
2018,10,26,01,58,11.40
2018,10,26,01,59,11.40
2018,10,26,02,01,11.40
2018,10,26,02,03,11.40
2018,10,26,02,04,11.40
2018,10,26,02,06,11.40
2018,10,26,02,07,11.40
2018,10,26,02,08,11.40
2018,10,26,02,09,11.40
2018,10,26,02,11,11.30
2018,10,26,02,13,11.30
2018,10,26,02,14,11.30
2018,10,26,02,15,11.30
2018,10,26,02,16,11.30
2018,10,26,02,17,11.30
2018,10,26,02,18,11.30
2018,10,26,02,19,11.30
2018,10,26,02,20,11.30
2018,10,26,02,22,11.30
2018,10,26,02,23,11.30
2018,10,26,02,24,11.30
2018,10,26,02,25,11.30
2018,10,26,02,26,11.30
2018,10,26,02,27,11.30
2018,10,26,02,28,11.30
2018,10,26,02,29,11.30
2018,10,26,02,30,11.30
2018,10,26,02,31,11.30
2018,10,26,02,32,11.30
2018,10,26,02,33,11.30
2018,10,26,02,34,11.30
2018,10,26,02,35,11.30
2018,10,26,02,36,11.30
2018,10,26,02,37,11.30
2018,10,26,02,39,11.30
2018,10,26,02,41,11.30
2018,10,26,02,42,11.30
2018,10,26,02,43,11.30
2018,10,26,02,44,11.30
2018,10,26,02,45,11.30
2018,10,26,02,46,11.30
2018,10,26,02,47,11.30
2018,10,26,02,49,11.30
2018,10,26,02,50,11.30
2018,10,26,02,51,11.30
2018,10,26,02,52,11.30
2018,10,26,02,53,11.30
2018,10,26,02,55,11.30
2018,10,26,02,57,11.30
2018,10,26,02,59,11.30
2018,10,26,03,00,11.30
2018,10,26,03,01,11.30
2018,10,26,03,02,11.30
2018,10,26,03,03,11.30
2018,10,26,03,04,11.30
2018,10,26,03,05,11.30
2018,10,26,03,06,11.30
2018,10,26,03,07,11.30
2018,10,26,03,09,11.30
2018,10,26,03,11,11.30
2018,10,26,03,12,11.30
2018,10,26,03,13,11.30
2018,10,26,03,14,11.30
2018,10,26,03,15,11.30
2018,10,26,03,17,11.30
2018,10,26,03,18,11.30
2018,10,26,03,19,11.30
2018,10,26,03,20,11.30
2018,10,26,03,21,11.30
2018,10,26,03,22,11.30
2018,10,26,03,23,11.30
2018,10,26,03,25,11.30
2018,10,26,03,26,11.30
2018,10,26,03,27,11.30
2018,10,26,03,28,11.30
2018,10,26,03,29,11.30
2018,10,26,03,30,11.30
2018,10,26,03,31,11.30
2018,10,26,03,33,11.30
2018,10,26,03,34,11.30
2018,10,26,03,35,11.30
2018,10,26,03,36,11.30
2018,10,26,03,37,11.30
2018,10,26,03,38,11.30
2018,10,26,03,39,11.30
2018,10,26,03,41,11.30
2018,10,26,03,42,11.30
2018,10,26,03,43,11.30
2018,10,26,03,45,11.30
2018,10,26,03,47,11.30
2018,10,26,03,48,11.30
2018,10,26,03,49,11.30
2018,10,26,03,50,11.30
2018,10,26,03,51,11.30
2018,10,26,03,53,11.30
2018,10,26,03,54,11.30
2018,10,26,03,55,11.30
2018,10,26,03,56,11.40
2018,10,26,03,59,11.40
2018,10,26,04,00,11.40
2018,10,26,04,01,11.40
2018,10,26,04,02,11.40
2018,10,26,04,03,11.40
2018,10,26,04,05,11.40
2018,10,26,04,06,11.40
2018,10,26,04,07,11.40
2018,10,26,04,09,11.40
2018,10,26,04,10,11.40
2018,10,26,04,11,11.40
2018,10,26,04,12,11.40
2018,10,26,04,15,11.40
2018,10,26,04,16,11.40
2018,10,26,04,17,11.40
2018,10,26,04,18,11.40
2018,10,26,04,19,11.40
2018,10,26,04,21,11.40
2018,10,26,04,22,11.40
2018,10,26,04,24,11.40
2018,10,26,04,25,11.40
2018,10,26,04,26,11.40
2018,10,26,04,27,11.40
2018,10,26,04,28,11.40
2018,10,26,04,29,11.40
2018,10,26,04,30,11.40
2018,10,26,04,31,11.40
2018,10,26,04,33,11.40
2018,10,26,04,35,11.30
2018,10,26,04,37,11.30
2018,10,26,04,38,11.30
2018,10,26,04,39,11.30
2018,10,26,04,41,11.40
2018,10,26,04,42,11.40
2018,10,26,04,43,11.40
2018,10,26,04,45,11.40
2018,10,26,04,46,11.40
2018,10,26,04,48,11.40
2018,10,26,04,49,11.40
2018,10,26,04,50,11.40
2018,10,26,04,51,11.40
2018,10,26,04,52,11.40
2018,10,26,04,53,11.40
2018,10,26,04,55,11.40
2018,10,26,04,56,11.40
2018,10,26,04,57,11.40
2018,10,26,04,58,11.40
2018,10,26,04,59,11.40
2018,10,26,05,00,11.40
2018,10,26,05,01,11.40
2018,10,26,05,02,11.40
2018,10,26,05,03,11.40
2018,10,26,05,04,11.40
2018,10,26,05,05,11.40
2018,10,26,05,06,11.40
2018,10,26,05,07,11.40
2018,10,26,05,08,11.40
2018,10,26,05,09,11.40
2018,10,26,05,10,11.40
2018,10,26,05,11,11.40
2018,10,26,05,12,11.40
2018,10,26,05,14,11.40
2018,10,26,05,15,11.40
2018,10,26,05,16,11.40
2018,10,26,05,17,11.40
2018,10,26,05,18,11.40
2018,10,26,05,19,11.40
2018,10,26,05,20,11.40
2018,10,26,05,22,11.40
2018,10,26,05,23,11.40
2018,10,26,05,24,11.40
2018,10,26,05,25,11.40
2018,10,26,05,26,11.40
2018,10,26,05,27,11.40
2018,10,26,05,28,11.40
2018,10,26,05,29,11.40
2018,10,26,05,30,11.40
2018,10,26,05,31,11.40
2018,10,26,05,33,11.40
2018,10,26,05,34,11.40
2018,10,26,05,35,11.40
2018,10,26,05,36,11.40
2018,10,26,05,37,11.40
2018,10,26,05,38,11.40
2018,10,26,05,39,11.40
2018,10,26,05,40,11.40
2018,10,26,05,42,11.40
2018,10,26,05,43,11.40
2018,10,26,05,44,11.40
2018,10,26,05,45,11.40
2018,10,26,05,46,11.40
2018,10,26,05,47,11.40
2018,10,26,05,48,11.40
2018,10,26,05,49,11.40
2018,10,26,05,50,11.40
2018,10,26,05,52,11.30
2018,10,26,05,53,11.30
2018,10,26,05,54,11.30
2018,10,26,05,55,11.30
2018,10,26,05,57,11.30
2018,10,26,05,59,11.30
2018,10,26,06,01,11.30
2018,10,26,06,02,11.30
2018,10,26,06,03,11.30
2018,10,26,06,05,11.30
2018,10,26,06,06,11.30
2018,10,26,06,08,11.30
2018,10,26,06,10,11.30
2018,10,26,06,12,11.30
2018,10,26,06,14,11.30
2018,10,26,06,16,11.30
2018,10,26,06,17,11.30
2018,10,26,06,18,11.30
2018,10,26,06,20,11.30
2018,10,26,06,21,11.30
2018,10,26,06,22,11.30
2018,10,26,06,24,11.30
2018,10,26,06,25,11.30
2018,10,26,06,28,11.40
2018,10,26,06,29,11.40
2018,10,26,06,30,11.50
2018,10,26,06,32,11.60
2018,10,26,06,34,11.90
2018,10,26,06,35,12.00
2018,10,26,06,36,12.10
2018,10,26,06,38,12.20
2018,10,26,06,40,12.30
2018,10,26,06,42,12.40
2018,10,26,06,43,12.50
2018,10,26,06,44,12.40
2018,10,26,06,46,12.30
2018,10,26,06,48,12.20
2018,10,26,06,49,12.10
2018,10,26,06,50,11.90
2018,10,26,06,51,11.90
2018,10,26,06,52,11.80
2018,10,26,06,53,11.70
2018,10,26,06,55,11.60
2018,10,26,06,57,11.40
2018,10,26,06,58,11.40
2018,10,26,07,00,11.40
2018,10,26,07,02,11.40
2018,10,26,07,04,11.40
2018,10,26,07,05,11.40
2018,10,26,07,06,11.30
2018,10,26,07,07,11.30
2018,10,26,07,08,11.30
2018,10,26,07,10,11.30
2018,10,26,07,11,11.30
2018,10,26,07,12,11.30
2018,10,26,07,14,11.40
2018,10,26,07,15,11.40
2018,10,26,07,16,11.40
2018,10,26,07,19,11.40
2018,10,26,07,20,11.40
2018,10,26,07,21,11.40
2018,10,26,07,22,11.70
2018,10,26,07,24,11.90
2018,10,26,07,26,12.20
2018,10,26,07,27,12.30
2018,10,26,07,29,12.60
2018,10,26,07,31,12.70
2018,10,26,07,32,12.70
2018,10,26,07,33,12.80
2018,10,26,07,34,12.80
2018,10,26,07,36,12.80
2018,10,26,07,37,12.90
2018,10,26,07,39,12.90
2018,10,26,07,40,12.90
2018,10,26,07,41,13.10
2018,10,26,07,42,13.10
2018,10,26,07,43,13.20
2018,10,26,07,45,13.20
2018,10,26,07,46,13.30
2018,10,26,07,48,13.30
2018,10,26,07,49,13.40
2018,10,26,07,51,13.40
2018,10,26,07,52,13.50
2018,10,26,07,54,13.60
2018,10,26,07,56,13.60
2018,10,26,07,58,13.70
2018,10,26,07,59,13.70
2018,10,26,08,01,13.70
2018,10,26,08,02,13.70
2018,10,26,08,04,13.70
2018,10,26,08,06,13.70
2018,10,26,08,07,13.60
2018,10,26,08,08,13.60
2018,10,26,08,09,13.60
2018,10,26,08,10,13.60
2018,10,26,08,11,13.50
2018,10,26,08,12,13.50
2018,10,26,08,13,13.50
2018,10,26,08,15,13.40
2018,10,26,08,16,13.40
2018,10,26,08,18,13.40
2018,10,26,08,20,13.40
2018,10,26,08,21,13.40
2018,10,26,08,22,13.40
2018,10,26,08,23,13.40
2018,10,26,08,24,13.40
2018,10,26,08,27,13.40
2018,10,26,08,28,13.40
2018,10,26,08,29,13.40
2018,10,26,08,31,13.40
2018,10,26,08,33,13.40
2018,10,26,08,35,13.40
2018,10,26,08,37,13.40
2018,10,26,08,39,13.40
2018,10,26,08,40,13.40
2018,10,26,08,42,13.40
2018,10,26,08,44,13.40
2018,10,26,08,45,13.40
2018,10,26,08,47,13.50
2018,10,26,08,48,13.50
2018,10,26,08,49,13.50
2018,10,26,08,50,13.50
2018,10,26,08,51,13.50
2018,10,26,08,53,13.50
2018,10,26,08,54,13.50
2018,10,26,08,56,13.60
2018,10,26,08,59,13.60
2018,10,26,09,01,13.60
2018,10,26,09,02,13.60
2018,10,26,09,03,13.70
2018,10,26,09,04,13.70
2018,10,26,09,05,13.80
2018,10,26,09,06,13.80
2018,10,26,09,07,13.80
2018,10,26,09,09,13.80
2018,10,26,09,10,13.80
2018,10,26,09,12,13.90
2018,10,26,09,14,14.00
2018,10,26,09,15,14.10
2018,10,26,09,18,14.20
2018,10,26,09,19,14.20
2018,10,26,09,20,14.20
2018,10,26,09,21,14.20
2018,10,26,09,23,14.30
2018,10,26,09,25,14.30
2018,10,26,09,26,14.30
2018,10,26,09,27,14.30
2018,10,26,09,29,14.30
2018,10,26,09,30,14.30
2018,10,26,09,31,14.30
2018,10,26,09,33,14.30
2018,10,26,09,34,14.40
2018,10,26,09,35,14.40
2018,10,26,09,37,14.50
2018,10,26,09,38,14.50
2018,10,26,09,39,14.50
2018,10,26,09,41,14.60
2018,10,26,09,42,14.60
2018,10,26,09,44,14.60
2018,10,26,09,45,14.60
2018,10,26,09,47,14.60
2018,10,26,09,48,14.60
2018,10,26,09,50,14.40
2018,10,26,09,51,14.30
2018,10,26,09,53,14.20
2018,10,26,09,54,14.10
2018,10,26,09,56,14.00
2018,10,26,09,57,13.90
2018,10,26,09,59,13.90
2018,10,26,10,01,13.80
2018,10,26,10,02,13.80
2018,10,26,10,03,13.80
2018,10,26,10,04,13.80
2018,10,26,10,06,13.80
2018,10,26,10,07,13.70
2018,10,26,10,08,13.70
2018,10,26,10,09,13.80
2018,10,26,10,11,13.80
2018,10,26,10,12,13.80
2018,10,26,10,14,13.90
2018,10,26,10,15,13.90
2018,10,26,10,17,14.00
2018,10,26,10,18,14.10
2018,10,26,10,19,14.10
2018,10,26,10,20,14.10
2018,10,26,10,21,14.20
2018,10,26,10,22,14.20
2018,10,26,10,24,14.30
2018,10,26,10,25,14.30
2018,10,26,10,26,14.40
2018,10,26,10,27,14.40
2018,10,26,10,28,14.40
2018,10,26,10,30,14.60
2018,10,26,10,31,14.60
2018,10,26,10,33,14.70
2018,10,26,10,34,14.70
2018,10,26,10,36,14.70
2018,10,26,10,37,14.70
2018,10,26,10,38,14.70
2018,10,26,10,39,14.60
2018,10,26,10,41,14.60
2018,10,26,10,42,14.50
2018,10,26,10,43,14.50
2018,10,26,10,44,14.40
2018,10,26,10,46,14.40
2018,10,26,10,47,14.40
2018,10,26,10,50,14.30
2018,10,26,10,51,14.30
2018,10,26,10,53,14.30
2018,10,26,10,55,14.30
2018,10,26,10,57,14.30
2018,10,26,10,59,14.30
2018,10,26,11,00,14.30
2018,10,26,11,01,14.30
2018,10,26,11,03,14.30
2018,10,26,11,04,14.30
2018,10,26,11,06,14.40
2018,10,26,11,08,14.40
2018,10,26,11,09,14.50
2018,10,26,11,11,14.50
2018,10,26,11,13,14.70
2018,10,26,11,14,14.70
2018,10,26,11,15,14.70
2018,10,26,11,16,14.70
2018,10,26,11,17,14.70
2018,10,26,11,18,14.80
2018,10,26,11,20,14.80
2018,10,26,11,21,14.80
2018,10,26,11,22,14.80
2018,10,26,11,24,14.80
2018,10,26,11,25,14.90
2018,10,26,11,26,15.00
2018,10,26,11,28,15.10
2018,10,26,11,29,15.10
2018,10,26,11,30,15.10
2018,10,26,11,31,15.10
2018,10,26,11,33,15.20
2018,10,26,11,34,15.20
2018,10,26,11,35,15.20
2018,10,26,11,38,15.20
2018,10,26,11,39,15.10
2018,10,26,11,40,15.10
2018,10,26,11,41,15.10
2018,10,26,11,42,15.10
2018,10,26,11,44,15.10
2018,10,26,11,45,15.10
2018,10,26,11,46,15.00
2018,10,26,11,47,15.00
2018,10,26,11,48,15.00
2018,10,26,11,50,15.10
2018,10,26,11,51,15.10
2018,10,26,11,52,15.20
2018,10,26,11,53,15.20
2018,10,26,11,54,15.20
2018,10,26,11,55,15.20
2018,10,26,11,56,15.20
2018,10,26,11,57,15.30
2018,10,26,11,59,15.20
2018,10,26,12,00,15.20
2018,10,26,12,01,15.20
2018,10,26,12,02,15.20
2018,10,26,12,04,15.20
2018,10,26,12,05,15.20
2018,10,26,12,07,15.10
2018,10,26,12,08,15.10
2018,10,26,12,09,15.10
2018,10,26,12,10,15.00
2018,10,26,12,12,14.90
2018,10,26,12,14,14.90
2018,10,26,12,15,14.90
2018,10,26,12,16,14.90
2018,10,26,12,17,14.90
2018,10,26,12,18,14.90
2018,10,26,12,20,15.00
2018,10,26,12,21,15.10
2018,10,26,12,22,15.10
2018,10,26,12,23,15.10
2018,10,26,12,26,15.10
2018,10,26,12,27,15.00
2018,10,26,12,28,15.10
2018,10,26,12,30,15.00
2018,10,26,12,31,15.10
2018,10,26,12,32,15.10
2018,10,26,12,33,15.00
2018,10,26,12,36,15.00
2018,10,26,12,37,14.90
2018,10,26,12,39,14.80
2018,10,26,12,40,14.80
2018,10,26,12,42,14.70
2018,10,26,12,43,14.70
2018,10,26,12,45,14.60
2018,10,26,12,46,14.60
2018,10,26,12,48,14.50
2018,10,26,12,49,14.60
2018,10,26,12,50,14.60
2018,10,26,12,51,14.60
2018,10,26,12,52,14.60
2018,10,26,12,53,14.70
2018,10,26,12,54,14.70
2018,10,26,12,56,14.80
2018,10,26,12,58,14.80
2018,10,26,12,59,14.90
2018,10,26,13,00,14.90
2018,10,26,13,01,14.90
2018,10,26,13,02,14.90
2018,10,26,13,03,14.90
2018,10,26,13,05,14.90
2018,10,26,13,07,14.90
2018,10,26,13,09,14.80
2018,10,26,13,10,14.80
2018,10,26,13,12,14.80
2018,10,26,13,13,14.80
2018,10,26,13,15,14.80
2018,10,26,13,16,14.80
2018,10,26,13,17,14.80
2018,10,26,13,19,14.70
2018,10,26,13,20,14.70
2018,10,26,13,21,14.70
2018,10,26,13,22,14.70
2018,10,26,13,25,14.60
2018,10,26,13,26,14.60
2018,10,26,13,27,14.70
2018,10,26,13,28,14.70
2018,10,26,13,30,14.80
2018,10,26,13,32,14.80
2018,10,26,13,33,14.90
2018,10,26,13,35,15.00
2018,10,26,13,36,15.10
2018,10,26,13,37,15.10
2018,10,26,13,39,15.10
2018,10,26,13,40,15.10
2018,10,26,13,42,15.10
2018,10,26,13,43,15.10
2018,10,26,13,44,15.10
2018,10,26,13,46,15.10
2018,10,26,13,47,15.00
2018,10,26,13,49,15.00
2018,10,26,13,50,14.90
2018,10,26,13,51,14.90
2018,10,26,13,53,14.90
2018,10,26,13,54,14.90
2018,10,26,13,55,14.90
2018,10,26,13,57,14.90
2018,10,26,13,58,15.00
2018,10,26,14,00,15.10
2018,10,26,14,01,15.20
2018,10,26,14,02,15.20
2018,10,26,14,04,15.20
2018,10,26,14,05,15.30
2018,10,26,14,06,15.30
2018,10,26,14,07,15.40
2018,10,26,14,09,15.50
2018,10,26,14,11,15.50
2018,10,26,14,12,15.50
2018,10,26,14,13,15.40
2018,10,26,14,14,15.40
2018,10,26,14,15,15.40
2018,10,26,14,16,15.40
2018,10,26,14,17,15.40
2018,10,26,14,19,15.40
2018,10,26,14,20,15.50
2018,10,26,14,22,15.50
2018,10,26,14,23,15.40
2018,10,26,14,24,15.40
2018,10,26,14,25,15.30
2018,10,26,14,26,15.20
2018,10,26,14,27,15.20
2018,10,26,14,28,15.10
2018,10,26,14,30,15.10
2018,10,26,14,31,15.10
2018,10,26,14,32,15.10
2018,10,26,14,33,15.10
2018,10,26,14,34,15.10
2018,10,26,14,35,15.10
2018,10,26,14,36,15.10
2018,10,26,14,37,15.10
2018,10,26,14,38,15.10
2018,10,26,14,39,15.20
2018,10,26,14,41,15.20
2018,10,26,14,42,15.20
2018,10,26,14,43,15.20
2018,10,26,14,44,15.20
2018,10,26,14,46,15.30
2018,10,26,14,48,15.30
2018,10,26,14,49,15.40
2018,10,26,14,50,15.40
2018,10,26,14,52,15.40
2018,10,26,14,53,15.50
2018,10,26,14,55,15.60
2018,10,26,14,56,15.60
2018,10,26,14,57,15.70
2018,10,26,14,59,15.70
2018,10,26,15,00,15.70
2018,10,26,15,02,15.60
2018,10,26,15,03,15.60
2018,10,26,15,04,15.60
2018,10,26,15,05,15.50
2018,10,26,15,06,15.50
2018,10,26,15,08,15.40
2018,10,26,15,10,15.40
2018,10,26,15,12,15.40
2018,10,26,15,13,15.40
2018,10,26,15,14,15.50
2018,10,26,15,15,15.50
2018,10,26,15,17,15.50
2018,10,26,15,20,15.60
2018,10,26,15,21,15.60
2018,10,26,15,22,15.60
2018,10,26,15,23,15.60
2018,10,26,15,25,15.60
2018,10,26,15,27,15.60
2018,10,26,15,28,15.60
2018,10,26,15,29,15.60
2018,10,26,15,31,15.70
2018,10,26,15,32,15.70
2018,10,26,15,33,15.70
2018,10,26,15,34,15.70
2018,10,26,15,35,15.70
2018,10,26,15,37,15.70
2018,10,26,15,38,15.70
2018,10,26,15,40,15.60
2018,10,26,15,41,15.60
2018,10,26,15,42,15.60
2018,10,26,15,43,15.60
2018,10,26,15,44,15.60
2018,10,26,15,46,15.60
2018,10,26,15,48,15.60
2018,10,26,15,49,15.60
2018,10,26,15,50,15.60
2018,10,26,15,51,15.60
2018,10,26,15,52,15.60
2018,10,26,15,53,15.60
2018,10,26,15,55,15.50
2018,10,26,15,56,15.50
2018,10,26,15,57,15.50
2018,10,26,15,58,15.50
2018,10,26,15,59,15.50
2018,10,26,16,00,15.60
2018,10,26,16,01,15.60
2018,10,26,16,03,15.60
2018,10,26,16,04,15.70
2018,10,26,16,06,15.70
2018,10,26,16,07,15.70
2018,10,26,16,09,15.40
2018,10,26,16,10,15.30
2018,10,26,16,11,15.30
2018,10,26,16,12,15.20
2018,10,26,16,13,15.10
2018,10,26,16,14,15.00
2018,10,26,16,16,14.90
2018,10,26,16,17,14.80
2018,10,26,16,18,14.80
2018,10,26,16,19,14.80
2018,10,26,16,20,14.80
2018,10,26,16,21,14.80
2018,10,26,16,23,14.70
2018,10,26,16,24,14.70
2018,10,26,16,26,14.70
2018,10,26,16,28,14.60
2018,10,26,16,29,14.60
2018,10,26,16,30,14.60
2018,10,26,16,31,14.60
2018,10,26,16,33,14.60
2018,10,26,16,35,14.60
2018,10,26,16,36,14.60
2018,10,26,16,37,14.60
2018,10,26,16,38,14.60
2018,10,26,16,40,14.60
2018,10,26,16,42,14.60
2018,10,26,16,43,14.60
2018,10,26,16,44,14.60
2018,10,26,16,45,14.70
2018,10,26,16,46,14.70
2018,10,26,16,47,14.70
2018,10,26,16,49,14.70
2018,10,26,16,50,14.70
2018,10,26,16,52,14.70
2018,10,26,16,53,14.70
2018,10,26,16,54,14.70
2018,10,26,16,56,14.70
2018,10,26,16,57,14.70
2018,10,26,16,58,14.70
2018,10,26,17,00,14.70
2018,10,26,17,01,14.70
2018,10,26,17,02,14.70
2018,10,26,17,03,14.70
2018,10,26,17,05,14.60
2018,10,26,17,06,14.60
2018,10,26,17,07,14.60
2018,10,26,17,09,14.60
2018,10,26,17,11,14.60
2018,10,26,17,12,14.60
2018,10,26,17,13,14.50
2018,10,26,17,14,14.50
2018,10,26,17,15,14.50
2018,10,26,17,17,14.40
2018,10,26,17,18,14.40
2018,10,26,17,19,14.40
2018,10,26,17,20,14.30
2018,10,26,17,21,14.30
2018,10,26,17,22,14.30
2018,10,26,17,23,14.30
2018,10,26,17,24,14.20
2018,10,26,17,26,14.20
2018,10,26,17,27,14.10
2018,10,26,17,28,14.10
2018,10,26,17,29,14.00
2018,10,26,17,30,13.90
2018,10,26,17,31,13.90
2018,10,26,17,32,13.90
2018,10,26,17,34,13.80
2018,10,26,17,35,13.80
2018,10,26,17,37,13.70
2018,10,26,17,38,13.70
2018,10,26,17,40,13.60
2018,10,26,17,41,13.60
2018,10,26,17,43,13.50
2018,10,26,17,44,13.40
2018,10,26,17,46,13.30
2018,10,26,17,48,13.30
2018,10,26,17,50,13.20
2018,10,26,17,51,13.20
2018,10,26,17,52,13.10
2018,10,26,17,54,13.10
2018,10,26,17,55,13.00
2018,10,26,17,57,12.90
2018,10,26,17,58,12.90
2018,10,26,17,59,12.90
2018,10,26,18,00,12.90
2018,10,26,18,02,12.80
2018,10,26,18,04,12.80
2018,10,26,18,05,12.80
2018,10,26,18,06,12.70
2018,10,26,18,07,12.70
2018,10,26,18,09,12.70
2018,10,26,18,10,12.70
2018,10,26,18,12,12.70
2018,10,26,18,13,12.70
2018,10,26,18,14,12.70
2018,10,26,18,15,12.70
2018,10,26,18,17,12.60
2018,10,26,18,18,12.60
2018,10,26,18,20,12.60
2018,10,26,18,21,12.60
2018,10,26,18,22,12.60
2018,10,26,18,24,12.60
2018,10,26,18,25,12.50
2018,10,26,18,26,12.50
2018,10,26,18,27,12.40
2018,10,26,18,28,12.40
2018,10,26,18,29,12.40
2018,10,26,18,30,12.40
2018,10,26,18,31,12.30
2018,10,26,18,32,12.30
2018,10,26,18,33,12.30
2018,10,26,18,35,12.30
2018,10,26,18,37,12.30
2018,10,26,18,38,12.30
2018,10,26,18,39,12.30
2018,10,26,18,40,12.30
2018,10,26,18,41,12.30
2018,10,26,18,42,12.20
2018,10,26,18,43,12.20
2018,10,26,18,45,12.20
2018,10,26,18,46,12.20
2018,10,26,18,48,12.20
2018,10,26,18,49,12.20
2018,10,26,18,50,12.10
2018,10,26,18,52,12.10
2018,10,26,18,54,12.00
2018,10,26,18,55,12.00
2018,10,26,18,56,11.90
2018,10,26,18,58,11.90
2018,10,26,18,59,11.90
2018,10,26,19,00,11.90
2018,10,26,19,01,11.80
2018,10,26,19,02,11.80
2018,10,26,19,03,11.80
2018,10,26,19,04,11.80
2018,10,26,19,06,11.80
2018,10,26,19,07,11.80
2018,10,26,19,08,11.80
2018,10,26,19,09,11.80
2018,10,26,19,10,11.80
2018,10,26,19,12,11.80
2018,10,26,19,13,11.80
2018,10,26,19,14,11.70
2018,10,26,19,15,11.70
2018,10,26,19,16,11.70
2018,10,26,19,17,11.70
2018,10,26,19,18,11.70
2018,10,26,19,19,11.70
2018,10,26,19,20,11.70
2018,10,26,19,22,11.70
2018,10,26,19,23,11.70
2018,10,26,19,24,11.70
2018,10,26,19,25,11.60
2018,10,26,19,27,11.60
2018,10,26,19,29,11.60
2018,10,26,19,30,11.60
2018,10,26,19,31,11.60
2018,10,26,19,33,11.60
2018,10,26,19,34,11.50
2018,10,26,19,36,11.50
2018,10,26,19,37,11.50
2018,10,26,19,38,11.50
2018,10,26,19,40,11.50
2018,10,26,19,41,11.40
2018,10,26,19,42,11.40
2018,10,26,19,44,11.40
2018,10,26,19,45,11.40
2018,10,26,19,47,11.30
2018,10,26,19,48,11.30
2018,10,26,19,49,11.30
2018,10,26,19,50,11.30
2018,10,26,19,52,11.30
2018,10,26,19,53,11.20
2018,10,26,19,54,11.20
2018,10,26,19,56,11.20
2018,10,26,19,57,11.20
2018,10,26,19,58,11.10
2018,10,26,19,59,11.10
2018,10,26,20,01,11.10
2018,10,26,20,02,11.00
2018,10,26,20,03,10.90
2018,10,26,20,04,10.90
2018,10,26,20,05,10.90
2018,10,26,20,07,10.80
2018,10,26,20,08,10.80
2018,10,26,20,09,10.80
2018,10,26,20,11,10.70
2018,10,26,20,12,10.70
2018,10,26,20,13,10.70
2018,10,26,20,15,10.60
2018,10,26,20,16,10.60
2018,10,26,20,17,10.60
2018,10,26,20,18,10.60
2018,10,26,20,20,10.50
2018,10,26,20,21,10.40
2018,10,26,20,22,10.40
2018,10,26,20,23,10.40
2018,10,26,20,24,10.30
2018,10,26,20,26,10.30
2018,10,26,20,27,10.20
2018,10,26,20,28,10.20
2018,10,26,20,30,10.20
2018,10,26,20,31,10.20
2018,10,26,20,33,10.10
2018,10,26,20,34,10.10
2018,10,26,20,35,10.10
2018,10,26,20,36,10.10
2018,10,26,20,37,10.00
2018,10,26,20,39,9.90
2018,10,26,20,40,9.90
2018,10,26,20,41,9.90
2018,10,26,20,42,9.90
2018,10,26,20,43,9.80
2018,10,26,20,44,9.80
2018,10,26,20,45,9.80
2018,10,26,20,46,9.80
2018,10,26,20,47,9.80
2018,10,26,20,48,9.70
2018,10,26,20,49,9.70
2018,10,26,20,50,9.70
2018,10,26,20,51,9.70
2018,10,26,20,53,9.70
2018,10,26,20,54,9.70
2018,10,26,20,55,9.60
2018,10,26,20,56,9.60
2018,10,26,20,58,9.60
2018,10,26,20,59,9.60
2018,10,26,21,01,9.50
2018,10,26,21,02,9.40
2018,10,26,21,03,9.40
2018,10,26,21,04,9.30
2018,10,26,21,05,9.30
2018,10,26,21,06,9.30
2018,10,26,21,07,9.30
2018,10,26,21,08,9.20
2018,10,26,21,09,9.20
2018,10,26,21,10,9.20
2018,10,26,21,12,9.20
2018,10,26,21,14,9.20
2018,10,26,21,15,9.20
2018,10,26,21,16,9.20
2018,10,26,21,17,9.20
2018,10,26,21,18,9.30
2018,10,26,21,19,9.30
2018,10,26,21,20,9.30
2018,10,26,21,22,9.40
2018,10,26,21,23,9.40
2018,10,26,21,24,9.40
2018,10,26,21,26,9.40
2018,10,26,21,27,9.30
2018,10,26,21,28,9.30
2018,10,26,21,29,9.30
2018,10,26,21,30,9.30
2018,10,26,21,31,9.20
2018,10,26,21,32,9.20
2018,10,26,21,34,9.20
2018,10,26,21,35,9.10
2018,10,26,21,36,9.10
2018,10,26,21,37,9.10
2018,10,26,21,39,9.00
2018,10,26,21,40,8.90
2018,10,26,21,41,8.90
2018,10,26,21,42,8.90
2018,10,26,21,43,8.90
2018,10,26,21,44,8.90
2018,10,26,21,46,8.90
2018,10,26,21,47,8.90
2018,10,26,21,48,8.90
2018,10,26,21,49,8.80
2018,10,26,21,51,8.80
2018,10,26,21,52,8.80
2018,10,26,21,53,8.80
2018,10,26,21,55,8.80
2018,10,26,21,56,8.80
2018,10,26,21,58,8.70
2018,10,26,21,59,8.70
2018,10,26,22,01,8.70
2018,10,26,22,03,8.60
2018,10,26,22,04,8.60
2018,10,26,22,05,8.50
2018,10,26,22,07,8.50
2018,10,26,22,09,8.40
2018,10,26,22,11,8.40
2018,10,26,22,12,8.40
2018,10,26,22,13,8.40
2018,10,26,22,14,8.30
2018,10,26,22,17,8.30
2018,10,26,22,19,8.30
2018,10,26,22,20,8.30
2018,10,26,22,21,8.30
2018,10,26,22,22,8.30
2018,10,26,22,23,8.20
2018,10,26,22,26,8.20
2018,10,26,22,28,8.10
2018,10,26,22,30,8.10
2018,10,26,22,31,8.10
2018,10,26,22,32,8.00
2018,10,26,22,34,8.00
2018,10,26,22,36,7.90
2018,10,26,22,37,7.90
2018,10,26,22,38,7.80
2018,10,26,22,40,7.70
2018,10,26,22,43,7.60
2018,10,26,22,45,7.60
2018,10,26,22,46,7.50
2018,10,26,22,47,7.50
2018,10,26,22,48,7.50
2018,10,26,22,50,7.40
2018,10,26,22,52,7.40
2018,10,26,22,53,7.40
2018,10,26,22,54,7.40
2018,10,26,22,55,7.40
2018,10,26,22,56,7.40
2018,10,26,22,58,7.30